This demonstration page uses our WeatherBlox Daily Observations layout. Learn more.

Left ArrowRight Arrow

53.62937, 11.41316

Hourly Observations for January 25, 2022

Temp ( °F °C ) Dew Point ( °F °C ) Humidity (%) Winds ( mph kmh ) Pressure ( in mb ) Visibility ( mi km ) Precip ( " mm )
12:20 am 00:20 Cloudy 39 4 36 2 87 87 WSW 7 11 30.51 1033 5 8 N/A
12:50 am 00:50 Cloudy 39 4 36 2 87 87 WSW 7 11 30.51 1033 4 7 N/A
1:50 am 01:50 Cloudy 39 4 36 2 87 87 WSW 7 11 30.48 1032 4 6 N/A
2:20 am 02:20 Mostly Cloudy 39 4 36 2 87 87 WSW 6 9 30.48 1032 4 6 N/A
2:50 am 02:50 Mostly Cloudy 39 4 36 2 87 87 W 6 9 30.48 1032 4 6 N/A
3:20 am 03:20 Mostly Cloudy 39 4 36 2 87 87 W 7 11 30.48 1032 3 5 N/A
3:50 am 03:50 Cloudy 39 4 36 2 87 87 W 8 13 30.48 1032 3 5 N/A
4:20 am 04:20 Mostly Cloudy 39 4 36 2 87 87 WSW 7 11 30.48 1032 3 5 N/A
4:50 am 04:50 Mostly Cloudy 39 4 36 2 87 87 WSW 5 7 30.45 1031 3 5 N/A
5:20 am 05:20 Cloudy 39 4 36 2 87 87 WSW 7 11 30.45 1031 3 5 N/A
5:50 am 05:50 Mostly Cloudy 39 4 36 2 87 87 WSW 7 11 30.45 1031 3 5 N/A
6:20 am 06:20 Mostly Cloudy with Mist and Fog 39 4 36 2 87 87 W 6 9 30.45 1031 3 5 N/A
6:50 am 06:50 Cloudy with Mist and Fog 39 4 37 3 93 93 W 6 9 30.45 1031 3 4 N/A
7:20 am 07:20 Cloudy with Mist and Fog 39 4 37 3 93 93 W 7 11 30.45 1031 3 4 N/A
7:50 am 07:50 Mostly Cloudy with Mist and Fog 39 4 37 3 93 93 W 7 11 30.45 1031 3 4 N/A
8:20 am 08:20 Cloudy with Mist and Fog 39 4 37 3 93 93 W 7 11 30.45 1031 2 3 N/A
8:50 am 08:50 Cloudy with Mist and Fog 39 4 37 3 93 93 W 6 9 30.48 1032 2 4 N/A
9:20 am 09:20 Cloudy with Mist and Fog 39 4 37 3 93 93 W 6 9 30.45 1031 2 3 N/A
9:50 am 09:50 Cloudy with Mist and Fog 39 4 39 4 100 100 WSW 7 11 30.45 1031 2 3 N/A
10:20 am 10:20 Cloudy with Mist and Fog 39 4 39 4 100 100 W 6 9 30.45 1031 2 4 N/A
10:50 am 10:50 Mostly Cloudy with Mist and Fog 41 5 39 4 93 93 W 7 11 30.48 1032 3 5 N/A
11:20 am 11:20 Mostly Cloudy with Mist and Fog 41 5 39 4 93 93 W 7 11 30.48 1032 2 4 N/A
11:50 am 11:50 Mostly Cloudy with Mist and Fog 41 5 39 4 93 93 W 7 11 30.45 1031 3 5 N/A
12:20 pm 12:20 Mostly Cloudy with Mist and Fog 41 5 39 4 93 93 W 7 11 30.45 1031 3 5 N/A
12:50 pm 12:50 Cloudy with Mist and Fog 41 5 39 4 93 93 W 8 13 30.45 1031 2 4 N/A
1:50 pm 13:50 Cloudy with Mist and Fog 41 5 39 4 93 93 W 8 13 30.45 1031 2 4 N/A
2:20 pm 14:20 Mostly Cloudy with Mist and Fog 43 6 41 5 93 93 WSW 9 15 30.42 1030 2 4 N/A
2:50 pm 14:50 Cloudy with Mist and Fog 43 6 41 5 93 93 WSW 8 13 30.42 1030 3 4 N/A
3:20 pm 15:20 Mostly Cloudy with Mist and Fog 41 5 41 5 100 100 W 7 11 30.42 1030 3 4 N/A
3:50 pm 15:50 Mostly Cloudy with Mist and Fog 41 5 41 5 100 100 W 8 13 30.42 1030 3 4 N/A
4:20 pm 16:20 Mostly Cloudy with Mist and Fog 41 5 41 5 100 100 W 7 11 30.42 1030 3 5 N/A
4:50 pm 16:50 Mostly Cloudy with Mist and Fog 41 5 41 5 100 100 W 7 11 30.42 1030 3 5 N/A
5:20 pm 17:20 Mostly Cloudy 41 5 41 5 100 100 W 7 11 30.42 1030 5 8 N/A
5:50 pm 17:50 Cloudy 41 5 39 4 93 93 W 8 13 30.42 1030 5 8 N/A
6:20 pm 18:20 Mostly Cloudy 41 5 39 4 93 93 W 8 13 30.42 1030 5 8 N/A
6:50 pm 18:50 Mostly Cloudy 41 5 39 4 93 93 W 7 11 30.42 1030 30 48 N/A
7:20 pm 19:20 Cloudy 41 5 39 4 93 93 W 8 13 30.42 1030 30 48 N/A
7:50 pm 19:50 Cloudy 41 5 39 4 93 93 W 7 11 30.42 1030 30 48 N/A
8:20 pm 20:20 Cloudy 41 5 39 4 93 93 W 8 13 30.42 1030 6 9 N/A
8:50 pm 20:50 Mostly Cloudy 41 5 39 4 93 93 W 9 15 30.42 1030 6 9 N/A
9:20 pm 21:20 Cloudy 41 5 39 4 93 93 W 8 13 30.42 1030 5 8 N/A
9:50 pm 21:50 Mostly Cloudy 41 5 39 4 93 93 W 8 13 30.42 1030 30 48 N/A
10:20 pm 22:20 Cloudy 41 5 37 3 87 87 WSW 7 11 30.39 1029 30 48 N/A
10:50 pm 22:50 Mostly Cloudy 39 4 37 3 93 93 W 8 13 30.39 1029 30 48 N/A
11:20 pm 23:20 Cloudy 39 4 37 3 93 93 WSW 9 15 30.39 1029 30 48 N/A
11:50 pm 23:50 Mostly Cloudy 39 4 37 3 93 93 WSW 7 11 30.39 1029 30 48 N/A

Powered by AerisWeather